China Lake, CA

8:40 AM PST on November 20, 2017 (GMT -0800)
China Lake NAWS

Weather History for KNID - September, 2014

Change the Weather History Date:

Sunday, September 7, 2014

  Actual Average Record
Temperature  
Mean Temperature 86 °F -  
Max Temperature 100 °F 93 °F 106 °F (2008)
Min Temperature 71 °F 66 °F 53 °F (2000)
Cooling Degree Days 20    
Growing Degree Days 36 (Base 50)    
Moisture  
Dew Point 47 °F    
Average Humidity 27    
Maximum Humidity 41    
Minimum Humidity 16    
Precipitation  
Precipitation 0.00 in - - ()
Sea Level Pressure  
Sea Level Pressure 29.79 in    
Wind  
Wind Speed 9 mph (South)    
Max Wind Speed 29 mph    
Max Gust Speed 39 mph    
Visibility 10 miles    
Events      
Averages and records for this station are not official NWS values.
T = Trace of Precipitation, MM = Missing Value Source: NWS Daily Summary

Daily Weather History Graph

Daily Weather History Graph

Search for Another Location

Airport or City:

Trip Planner

Search our weather history database for the weather conditions in past years. The results will help you decide how hot, cold, wet, or windy it might be!

Date:

Astronomy

Sep. 07, 2014 Rise Set
Actual Time 6:27 AM PDT 7:09 PM PDT
Civil Twilight 6:01 AM PDT 7:35 PM PDT
Nautical Twilight 5:31 AM PDT 8:05 PM PDT
Astronomical Twilight 4:59 AM PDT 8:36 PM PDT
Moon 6:11 PM PDT (9/7) 4:47 AM PDT (9/7)
Length of Visible Light 13h 33m
Length of Day
12h 41m
Waxing Gibbous, 97% of the Moon is Illuminated
Sep 7
Waxing Gibbous
Sep 8
Full
Sep 15
Last Quarter
Sep 23
New
Oct 1
First Quarter

Hourly Weather History & Observations

Time (PDT) Temp. Heat Index Dew Point Humidity Pressure Visibility Wind Dir Wind Speed Gust Speed Precip Events Conditions
12:56 AM 79.0 °F - 39.9 °F 25% 29.82 in 10.0 mi South 11.5 mph - N/A   Clear
1:56 AM 79.0 °F - 39.0 °F 24% 29.82 in 10.0 mi South 5.8 mph - N/A   Scattered Clouds
2:56 AM 77.0 °F - 37.9 °F 24% 29.82 in 10.0 mi SSW 9.2 mph - N/A   Clear
3:56 AM 73.0 °F - 37.9 °F 28% 29.83 in 10.0 mi NNE 3.5 mph - N/A   Clear
4:56 AM 72.0 °F - 37.9 °F 29% 29.81 in 10.0 mi South 6.9 mph - N/A   Clear
5:56 AM 71.1 °F - 37.9 °F 30% 29.83 in 10.0 mi South 6.9 mph - N/A   Clear
6:56 AM 73.0 °F - 39.0 °F 29% 29.85 in 10.0 mi SSW 8.1 mph - N/A   Clear
7:56 AM 75.0 °F - 39.0 °F 27% 29.87 in 10.0 mi Calm Calm - N/A   Clear
8:56 AM 81.0 °F - 39.0 °F 22% 29.86 in 10.0 mi Calm Calm - N/A   Clear
9:56 AM 87.1 °F - 39.9 °F 19% 29.86 in 10.0 mi Calm Calm - N/A   Clear
10:56 AM 93.0 °F - 41.0 °F 16% 29.85 in 10.0 mi NE 5.8 mph - N/A   Clear
11:56 AM 96.1 °F - 48.9 °F 20% 29.83 in 10.0 mi SSE 10.4 mph 20.7 mph N/A   Clear
12:56 PM 98.1 °F - 51.1 °F 20% 29.81 in 10.0 mi South 13.8 mph 18.4 mph N/A   Clear
1:56 PM 98.1 °F - 46.9 °F 18% 29.76 in 10.0 mi North - - N/A   Clear
2:56 PM 99.0 °F - 46.9 °F 17% 29.73 in 10.0 mi South 8.1 mph - N/A   Clear
3:56 PM 100.9 °F - 46.9 °F 16% 29.71 in 10.0 mi SSW 9.2 mph - N/A   Clear
4:56 PM 93.9 °F 94.0 °F 61.0 °F 33% 29.71 in 10.0 mi SSE 28.8 mph 39.1 mph N/A   Clear
5:56 PM 91.0 °F 90.2 °F 59.0 °F 34% 29.72 in 10.0 mi SSE 26.5 mph 34.5 mph N/A   Clear
6:56 PM 90.0 °F 88.8 °F 57.9 °F 34% 29.72 in 10.0 mi SSW 15.0 mph 21.9 mph N/A   Clear
7:56 PM 87.1 °F 86.7 °F 60.1 °F 40% 29.74 in 10.0 mi SW 12.7 mph - N/A   Clear
8:56 PM 86.0 °F 85.7 °F 60.1 °F 41% 29.75 in 10.0 mi SSW 13.8 mph - N/A   Clear
9:56 PM 84.9 °F 84.2 °F 57.9 °F 40% 29.75 in 10.0 mi South 12.7 mph - N/A   Clear
10:56 PM 84.0 °F - 48.0 °F 28% 29.75 in 10.0 mi South 10.4 mph - N/A   Clear
11:56 PM 84.0 °F - 46.9 °F 27% 29.76 in 10.0 mi SSW 11.5 mph - N/A   Clear